History Data

Date (GMT-7:00) CPM ACPM uSv/h Latitude Longitude Altitude CO CO2 TVOC HCHO Air Pressure Temperature Humidity Type
2026-04-24 14:51:00 16 18.10 0.080000 41.649648 41.62752893 0 0 0 0 0 0 0 0 STD5.60
2026-04-24 14:45:58 16 17.90 0.080000 41.649648 41.62752893 0 0 0 0 0 0 0 0 STD5.60
2026-04-24 14:40:56 19 16.90 0.095000 41.649648 41.62752893 0 0 0 0 0 0 0 0 STD5.60
2026-04-24 14:35:54 14 15.70 0.070000 41.649648 41.62752893 0 0 0 0 0 0 0 0 STD5.60
2026-04-24 14:30:53 13 16.30 0.065000 41.649648 41.62752893 0 0 0 0 0 0 0 0 STD5.60
2026-04-24 14:25:50 14 17.80 0.070000 41.649648 41.62752893 0 0 0 0 0 0 0 0 STD5.60
2026-04-24 14:20:49 16 18.30 0.080000 41.649648 41.62752893 0 0 0 0 0 0 0 0 STD5.60
2026-04-24 14:15:45 18 18.60 0.090000 41.649648 41.62752893 0 0 0 0 0 0 0 0 STD5.60
2026-04-24 14:10:43 14 17.40 0.070000 41.649648 41.62752893 0 0 0 0 0 0 0 0 STD5.60
2026-04-24 14:05:41 15 17.70 0.075000 41.649648 41.62752893 0 0 0 0 0 0 0 0 STD5.60
2026-04-24 14:00:39 18 18.60 0.090000 41.649648 41.62752893 0 0 0 0 0 0 0 0 STD5.60
2026-04-24 13:55:37 18 18.60 0.090000 41.649648 41.62752893 0 0 0 0 0 0 0 0 STD5.60
2026-04-24 13:50:35 18 18.20 0.090000 41.649648 41.62752893 0 0 0 0 0 0 0 0 STD5.60
2026-04-24 13:45:34 16 18.00 0.080000 41.649648 41.62752893 0 0 0 0 0 0 0 0 STD5.60
2026-04-24 13:40:32 14 17.20 0.070000 41.649648 41.62752893 0 0 0 0 0 0 0 0 STD5.60
2026-04-24 13:35:32 12 18.30 0.060000 41.649648 41.62752893 0 0 0 0 0 0 0 0 STD5.60
2026-04-24 13:30:29 24 17.80 0.120000 41.649648 41.62752893 0 0 0 0 0 0 0 0 STD5.60
2026-04-24 13:25:26 16 16.00 0.080000 41.649648 41.62752893 0 0 0 0 0 0 0 0 STD5.60
2026-04-24 13:20:23 17 16.70 0.085000 41.649648 41.62752893 0 0 0 0 0 0 0 0 STD5.60
2026-04-24 13:15:19 15 15.70 0.075000 41.649648 41.62752893 0 0 0 0 0 0 0 0 STD5.60
2026-04-24 13:10:17 15 14.10 0.075000 41.649648 41.62752893 0 0 0 0 0 0 0 0 STD5.60
2026-04-24 13:05:15 11 18.20 0.055000 41.649648 41.62752893 0 0 0 0 0 0 0 0 STD5.60
2026-04-24 13:00:13 19 20.50 0.095000 41.649648 41.62752893 0 0 0 0 0 0 0 0 STD5.60
2026-04-24 12:55:11 22 17.90 0.110000 41.649648 41.62752893 0 0 0 0 0 0 0 0 STD5.60
2026-04-24 12:50:09 21 17.70 0.105000 41.649648 41.62752893 0 0 0 0 0 0 0 0 STD5.60
2026-04-24 12:45:07 18 17.10 0.090000 41.649648 41.62752893 0 0 0 0 0 0 0 0 STD5.60
2026-04-24 12:40:05 18 18.70 0.090000 41.649648 41.62752893 0 0 0 0 0 0 0 0 STD5.60
2026-04-24 12:35:03 20 19.20 0.100000 41.649648 41.62752893 0 0 0 0 0 0 0 0 STD5.60
2026-04-24 12:30:01 22 18.50 0.110000 41.649648 41.62752893 0 0 0 0 0 0 0 0 STD5.60
2026-04-24 12:24:59 19 19.60 0.095000 41.649648 41.62752893 0 0 0 0 0 0 0 0 STD5.60
2026-04-24 12:19:57 21 17.70 0.105000 41.649648 41.62752893 0 0 0 0 0 0 0 0 STD5.60
2026-04-24 12:14:53 19 17.80 0.095000 41.649648 41.62752893 0 0 0 0 0 0 0 0 STD5.60
2026-04-24 12:09:51 20 18.80 0.100000 41.649648 41.62752893 0 0 0 0 0 0 0 0 STD5.60
2026-04-24 12:04:49 23 17.50 0.115000 41.649648 41.62752893 0 0 0 0 0 0 0 0 STD5.60
2026-04-24 11:59:47 12 17.70 0.060000 41.649648 41.62752893 0 0 0 0 0 0 0 0 STD5.60
2026-04-24 11:54:45 21 18.70 0.105000 41.649648 41.62752893 0 0 0 0 0 0 0 0 STD5.60
2026-04-24 11:49:43 12 19.00 0.060000 41.649648 41.62752893 0 0 0 0 0 0 0 0 STD5.60
2026-04-24 11:44:41 17 17.70 0.085000 41.649648 41.62752893 0 0 0 0 0 0 0 0 STD5.60
2026-04-24 11:39:39 12 17.50 0.060000 41.649648 41.62752893 0 0 0 0 0 0 0 0 STD5.60
2026-04-24 11:34:37 20 17.00 0.100000 41.649648 41.62752893 0 0 0 0 0 0 0 0 STD5.60
2026-04-24 11:29:36 22 17.70 0.110000 41.649648 41.62752893 0 0 0 0 0 0 0 0 STD5.60
2026-04-24 11:24:33 28 18.10 0.140000 41.649648 41.62752893 0 0 0 0 0 0 0 0 STD5.60
2026-04-24 11:19:31 19 16.70 0.095000 41.649648 41.62752893 0 0 0 0 0 0 0 0 STD5.60
2026-04-24 11:14:27 14 18.20 0.070000 41.649648 41.62752893 0 0 0 0 0 0 0 0 STD5.60
2026-04-24 11:09:26 27 17.90 0.135000 41.649648 41.62752893 0 0 0 0 0 0 0 0 STD5.60
2026-04-24 11:04:24 16 17.50 0.080000 41.649648 41.62752893 0 0 0 0 0 0 0 0 STD5.60
2026-04-24 10:59:21 16 17.80 0.080000 41.649648 41.62752893 0 0 0 0 0 0 0 0 STD5.60
2026-04-24 10:54:19 23 17.50 0.115000 41.649648 41.62752893 0 0 0 0 0 0 0 0 STD5.60
2026-04-24 10:49:17 24 16.80 0.120000 41.649648 41.62752893 0 0 0 0 0 0 0 0 STD5.60
2026-04-24 10:44:15 17 16.40 0.085000 41.649648 41.62752893 0 0 0 0 0 0 0 0 STD5.60
2026-04-24 10:39:13 13 15.50 0.065000 41.649648 41.62752893 0 0 0 0 0 0 0 0 STD5.60
2026-04-24 10:34:12 11 15.10 0.055000 41.649648 41.62752893 0 0 0 0 0 0 0 0 STD5.60
2026-04-24 10:29:10 25 16.10 0.125000 41.649648 41.62752893 0 0 0 0 0 0 0 0 STD5.60
2026-04-24 10:24:08 15 15.80 0.075000 41.649648 41.62752893 0 0 0 0 0 0 0 0 STD5.60
2026-04-24 10:19:04 22 16.00 0.110000 41.649648 41.62752893 0 0 0 0 0 0 0 0 STD5.60
2026-04-24 10:14:03 19 16.90 0.095000 41.649648 41.62752893 0 0 0 0 0 0 0 0 STD5.60
2026-04-24 10:09:00 14 18.80 0.070000 41.649648 41.62752893 0 0 0 0 0 0 0 0 STD5.60
2026-04-24 10:03:58 23 19.80 0.115000 41.649648 41.62752893 0 0 0 0 0 0 0 0 STD5.60
2026-04-24 09:58:56 19 18.00 0.095000 41.649648 41.62752893 0 0 0 0 0 0 0 0 STD5.60
2026-04-24 09:53:54 19 16.20 0.095000 41.649648 41.62752893 0 0 0 0 0 0 0 0 STD5.60
2026-04-24 09:48:52 23 15.60 0.115000 41.649648 41.62752893 0 0 0 0 0 0 0 0 STD5.60
2026-04-24 09:43:50 16 16.50 0.080000 41.649648 41.62752893 0 0 0 0 0 0 0 0 STD5.60
2026-04-24 09:38:48 14 17.10 0.070000 41.649648 41.62752893 0 0 0 0 0 0 0 0 STD5.60
2026-04-24 09:33:46 20 17.40 0.100000 41.649648 41.62752893 0 0 0 0 0 0 0 0 STD5.60
2026-04-24 09:28:45 19 17.60 0.095000 41.649648 41.62752893 0 0 0 0 0 0 0 0 STD5.60
2026-04-24 09:23:42 15 8.20 0.075000 41.649648 41.62752893 0 0 0 0 0 0 0 0 STD5.60
2026-04-24 09:18:37 17 18.00 0.085000 41.649648 41.62752893 0 0 0 0 0 0 0 0 STD5.60
2026-04-24 09:13:35 16 18.00 0.080000 41.649648 41.62752893 0 0 0 0 0 0 0 0 STD5.60
2026-04-24 09:08:33 17 17.70 0.085000 41.649648 41.62752893 0 0 0 0 0 0 0 0 STD5.60
2026-04-24 09:03:32 18 18.80 0.090000 41.649648 41.62752893 0 0 0 0 0 0 0 0 STD5.60
2026-04-24 08:58:29 21 19.80 0.105000 41.649648 41.62752893 0 0 0 0 0 0 0 0 STD5.60
2026-04-24 08:53:27 28 18.40 0.140000 41.649648 41.62752893 0 0 0 0 0 0 0 0 STD5.60
2026-04-24 08:48:25 16 16.70 0.080000 41.649648 41.62752893 0 0 0 0 0 0 0 0 STD5.60
2026-04-24 08:43:23 15 17.50 0.075000 41.649648 41.62752893 0 0 0 0 0 0 0 0 STD5.60
2026-04-24 08:38:21 22 16.30 0.110000 41.649648 41.62752893 0 0 0 0 0 0 0 0 STD5.60
2026-04-24 08:33:19 12 14.90 0.060000 41.649648 41.62752893 0 0 0 0 0 0 0 0 STD5.60
2026-04-24 08:28:17 10 18.20 0.050000 41.649648 41.62752893 0 0 0 0 0 0 0 0 STD5.60
2026-04-24 08:23:15 17 20.80 0.085000 41.649648 41.62752893 0 0 0 0 0 0 0 0 STD5.60
2026-04-24 08:18:11 14 20.30 0.070000 41.649648 41.62752893 0 0 0 0 0 0 0 0 STD5.60
2026-04-24 08:13:08 15 18.90 0.075000 41.649648 41.62752893 0 0 0 0 0 0 0 0 STD5.60
2026-04-24 08:08:07 21 18.30 0.105000 41.649648 41.62752893 0 0 0 0 0 0 0 0 STD5.60
2026-04-24 08:03:04 21 17.80 0.105000 41.649648 41.62752893 0 0 0 0 0 0 0 0 STD5.60
2026-04-24 07:58:02 15 17.80 0.075000 41.649648 41.62752893 0 0 0 0 0 0 0 0 STD5.60
2026-04-24 07:53:00 17 16.90 0.085000 41.649648 41.62752893 0 0 0 0 0 0 0 0 STD5.60
2026-04-24 07:47:58 15 15.50 0.075000 41.649648 41.62752893 0 0 0 0 0 0 0 0 STD5.60
2026-04-24 07:42:56 14 16.70 0.070000 41.649648 41.62752893 0 0 0 0 0 0 0 0 STD5.60
2026-04-24 07:37:54 15 17.70 0.075000 41.649648 41.62752893 0 0 0 0 0 0 0 0 STD5.60
2026-04-24 07:32:52 16 17.80 0.080000 41.649648 41.62752893 0 0 0 0 0 0 0 0 STD5.60
2026-04-24 07:27:50 21 18.70 0.105000 41.649648 41.62752893 0 0 0 0 0 0 0 0 STD5.60
2026-04-24 07:22:48 24 18.20 0.120000 41.649648 41.62752893 0 0 0 0 0 0 0 0 STD5.60
2026-04-24 07:17:42 21 17.70 0.105000 41.649648 41.62752893 0 0 0 0 0 0 0 0 STD5.60
2026-04-24 07:12:40 16 19.80 0.080000 41.649648 41.62752893 0 0 0 0 0 0 0 0 STD5.60
2026-04-24 07:07:38 17 20.30 0.085000 41.649648 41.62752893 0 0 0 0 0 0 0 0 STD5.60
2026-04-24 07:02:36 17 18.70 0.085000 41.649648 41.62752893 0 0 0 0 0 0 0 0 STD5.60
2026-04-24 06:57:34 21 16.10 0.105000 41.649648 41.62752893 0 0 0 0 0 0 0 0 STD5.60
2026-04-24 06:52:32 16 16.50 0.080000 41.649648 41.62752893 0 0 0 0 0 0 0 0 STD5.60
2026-04-24 06:47:30 20 18.70 0.100000 41.649648 41.62752893 0 0 0 0 0 0 0 0 STD5.60
2026-04-24 06:42:28 23 20.40 0.115000 41.649648 41.62752893 0 0 0 0 0 0 0 0 STD5.60
2026-04-24 06:37:26 21 18.00 0.105000 41.649648 41.62752893 0 0 0 0 0 0 0 0 STD5.60
2026-04-24 06:32:24 19 16.70 0.095000 41.649648 41.62752893 0 0 0 0 0 0 0 0 STD5.60
2026-04-24 06:27:22 18 16.90 0.090000 41.649648 41.62752893 0 0 0 0 0 0 0 0 STD5.60
2026-04-24 06:22:19 24 14.50 0.120000 41.649648 41.62752893 0 0 0 0 0 0 0 0 STD5.60
2026-04-24 06:17:16 15 15.20 0.075000 41.649648 41.62752893 0 0 0 0 0 0 0 0 STD5.60
2026-04-24 06:12:14 22 17.20 0.110000 41.649648 41.62752893 0 0 0 0 0 0 0 0 STD5.60
2026-04-24 06:07:12 17 17.10 0.085000 41.649648 41.62752893 0 0 0 0 0 0 0 0 STD5.60
2026-04-24 06:02:17 18 18.20 0.090000 41.649648 41.62752893 0 0 0 0 0 0 0 0 STD5.60
2026-04-24 05:57:08 22 18.80 0.110000 41.649648 41.62752893 0 0 0 0 0 0 0 0 STD5.60
2026-04-24 05:52:06 19 19.00 0.095000 41.649648 41.62752893 0 0 0 0 0 0 0 0 STD5.60
2026-04-24 05:47:03 17 18.80 0.085000 41.649648 41.62752893 0 0 0 0 0 0 0 0 STD5.60
2026-04-24 05:42:02 19 16.20 0.095000 41.649648 41.62752893 0 0 0 0 0 0 0 0 STD5.60
2026-04-24 05:36:59 14 16.70 0.070000 41.649648 41.62752893 0 0 0 0 0 0 0 0 STD5.60
2026-04-24 05:31:57 12 18.00 0.060000 41.649648 41.62752893 0 0 0 0 0 0 0 0 STD5.60
2026-04-24 05:26:55 16 17.30 0.080000 41.649648 41.62752893 0 0 0 0 0 0 0 0 STD5.60
2026-04-24 05:21:53 20 16.10 0.100000 41.649648 41.62752893 0 0 0 0 0 0 0 0 STD5.60
2026-04-24 05:16:49 19 15.60 0.095000 41.649648 41.62752893 0 0 0 0 0 0 0 0 STD5.60
2026-04-24 05:11:47 18 17.50 0.090000 41.649648 41.62752893 0 0 0 0 0 0 0 0 STD5.60
2026-04-24 05:06:45 18 18.20 0.090000 41.649648 41.62752893 0 0 0 0 0 0 0 0 STD5.60
2026-04-24 05:01:44 17 17.70 0.085000 41.649648 41.62752893 0 0 0 0 0 0 0 0 STD5.60
2026-04-24 04:56:41 18 19.10 0.090000 41.649648 41.62752893 0 0 0 0 0 0 0 0 STD5.60
2026-04-24 04:51:39 24 19.50 0.120000 41.649648 41.62752893 0 0 0 0 0 0 0 0 STD5.60
2026-04-24 04:46:37 18 19.80 0.090000 41.649648 41.62752893 0 0 0 0 0 0 0 0 STD5.60
2026-04-24 04:41:35 23 18.80 0.115000 41.649648 41.62752893 0 0 0 0 0 0 0 0 STD5.60
2026-04-24 04:36:33 15 15.30 0.075000 41.649648 41.62752893 0 0 0 0 0 0 0 0 STD5.60
2026-04-24 04:31:31 7 16.80 0.035000 41.649648 41.62752893 0 0 0 0 0 0 0 0 STD5.60
2026-04-24 04:26:29 16 18.00 0.080000 41.649648 41.62752893 0 0 0 0 0 0 0 0 STD5.60
2026-04-24 04:21:26 14 16.30 0.070000 41.649648 41.62752893 0 0 0 0 0 0 0 0 STD5.60
2026-04-24 04:16:22 20 15.50 0.100000 41.649648 41.62752893 0 0 0 0 0 0 0 0 STD5.60
2026-04-24 04:11:20 19 15.90 0.095000 41.649648 41.62752893 0 0 0 0 0 0 0 0 STD5.60
2026-04-24 04:06:18 19 18.20 0.095000 41.649648 41.62752893 0 0 0 0 0 0 0 0 STD5.60
2026-04-24 04:01:17 32 19.50 0.160000 41.649648 41.62752893 0 0 0 0 0 0 0 0 STD5.60
2026-04-24 03:56:14 23 19.20 0.115000 41.649648 41.62752893 0 0 0 0 0 0 0 0 STD5.60
2026-04-24 03:51:12 16 19.90 0.080000 41.649648 41.62752893 0 0 0 0 0 0 0 0 STD5.60
2026-04-24 03:46:10 25 18.30 0.125000 41.649648 41.62752893 0 0 0 0 0 0 0 0 STD5.60
2026-04-24 03:41:08 18 17.80 0.090000 41.649648 41.62752893 0 0 0 0 0 0 0 0 STD5.60
2026-04-24 03:36:06 22 17.20 0.110000 41.649648 41.62752893 0 0 0 0 0 0 0 0 STD5.60
2026-04-24 03:31:03 15 16.50 0.075000 41.649648 41.62752893 0 0 0 0 0 0 0 0 STD5.60
2026-04-24 03:26:02 20 17.70 0.100000 41.649648 41.62752893 0 0 0 0 0 0 0 0 STD5.60
2026-04-24 03:20:59 19 18.70 0.095000 41.649648 41.62752893 0 0 0 0 0 0 0 0 STD5.60
2026-04-24 03:15:54 22 18.10 0.110000 41.649648 41.62752893 0 0 0 0 0 0 0 0 STD5.60
2026-04-24 03:10:52 17 17.00 0.085000 41.649648 41.62752893 0 0 0 0 0 0 0 0 STD5.60
2026-04-24 03:05:50 16 18.70 0.080000 41.649648 41.62752893 0 0 0 0 0 0 0 0 STD5.60
2026-04-24 03:00:52 21 19.00 0.105000 41.649648 41.62752893 0 0 0 0 0 0 0 0 STD5.60
2026-04-24 02:55:46 16 17.60 0.080000 41.649648 41.62752893 0 0 0 0 0 0 0 0 STD5.60
2026-04-24 02:50:44 14 18.40 0.070000 41.649648 41.62752893 0 0 0 0 0 0 0 0 STD5.60
2026-04-24 02:45:42 26 19.10 0.130000 41.649648 41.62752893 0 0 0 0 0 0 0 0 STD5.60
2026-04-24 02:40:39 20 16.90 0.100000 41.649648 41.62752893 0 0 0 0 0 0 0 0 STD5.60
2026-04-24 02:35:37 12 16.00 0.060000 41.649648 41.62752893 0 0 0 0 0 0 0 0 STD5.60
2026-04-24 02:30:35 15 17.30 0.075000 41.649648 41.62752893 0 0 0 0 0 0 0 0 STD5.60
2026-04-24 02:25:34 17 18.40 0.085000 41.649648 41.62752893 0 0 0 0 0 0 0 0 STD5.60
2026-04-24 02:20:31 13 17.20 0.065000 41.649648 41.62752893 0 0 0 0 0 0 0 0 STD5.60
2026-04-24 02:15:27 17 15.60 0.085000 41.649648 41.62752893 0 0 0 0 0 0 0 0 STD5.60
2026-04-24 02:10:25 15 15.70 0.075000 41.649648 41.62752893 0 0 0 0 0 0 0 0 STD5.60
2026-04-24 02:05:23 23 18.00 0.115000 41.649648 41.62752893 0 0 0 0 0 0 0 0 STD5.60
2026-04-24 02:00:21 14 19.00 0.070000 41.649648 41.62752893 0 0 0 0 0 0 0 0 STD5.60
2026-04-24 01:55:19 14 19.00 0.070000 41.649648 41.62752893 0 0 0 0 0 0 0 0 STD5.60
2026-04-24 01:50:16 17 18.20 0.085000 41.649648 41.62752893 0 0 0 0 0 0 0 0 STD5.60
2026-04-24 01:45:14 24 17.40 0.120000 41.649648 41.62752893 0 0 0 0 0 0 0 0 STD5.60
2026-04-24 01:40:13 10 17.30 0.050000 41.649648 41.62752893 0 0 0 0 0 0 0 0 STD5.60
2026-04-24 01:35:10 20 18.40 0.100000 41.649648 41.62752893 0 0 0 0 0 0 0 0 STD5.60
2026-04-24 01:30:08 21 17.50 0.105000 41.649648 41.62752893 0 0 0 0 0 0 0 0 STD5.60
2026-04-24 01:25:07 19 18.70 0.095000 41.649648 41.62752893 0 0 0 0 0 0 0 0 STD5.60
2026-04-24 01:20:04 25 18.00 0.125000 41.649648 41.62752893 0 0 0 0 0 0 0 0 STD5.60
2026-04-24 01:15:00 15 16.50 0.075000 41.649648 41.62752893 0 0 0 0 0 0 0 0 STD5.60
2026-04-24 01:09:58 11 17.60 0.055000 41.649648 41.62752893 0 0 0 0 0 0 0 0 STD5.60
2026-04-24 01:04:55 24 17.50 0.120000 41.649648 41.62752893 0 0 0 0 0 0 0 0 STD5.60
2026-04-24 00:59:53 15 17.60 0.075000 41.649648 41.62752893 0 0 0 0 0 0 0 0 STD5.60
2026-04-24 00:54:51 26 18.20 0.130000 41.649648 41.62752893 0 0 0 0 0 0 0 0 STD5.60
2026-04-24 00:49:49 24 17.40 0.120000 41.649648 41.62752893 0 0 0 0 0 0 0 0 STD5.60
2026-04-24 00:44:47 12 18.10 0.060000 41.649648 41.62752893 0 0 0 0 0 0 0 0 STD5.60
2026-04-24 00:39:45 22 18.70 0.110000 41.649648 41.62752893 0 0 0 0 0 0 0 0 STD5.60
2026-04-24 00:34:42 16 18.30 0.080000 41.649648 41.62752893 0 0 0 0 0 0 0 0 STD5.60
2026-04-24 00:29:40 21 17.70 0.105000 41.649648 41.62752893 0 0 0 0 0 0 0 0 STD5.60
2026-04-24 00:24:38 14 16.70 0.070000 41.649648 41.62752893 0 0 0 0 0 0 0 0 STD5.60
2026-04-24 00:19:36 20 15.90 0.100000 41.649648 41.62752893 0 0 0 0 0 0 0 0 STD5.60
2026-04-24 00:14:32 12 15.50 0.060000 41.649648 41.62752893 0 0 0 0 0 0 0 0 STD5.60
2026-04-24 00:09:30 22 17.00 0.110000 41.649648 41.62752893 0 0 0 0 0 0 0 0 STD5.60
2026-04-24 00:04:28 10 18.60 0.050000 41.649648 41.62752893 0 0 0 0 0 0 0 0 STD5.60
2026-04-23 23:59:26 8 19.10 0.040000 41.649648 41.62752893 0 0 0 0 0 0 0 0 STD5.60
2026-04-23 23:54:23 21 18.30 0.105000 41.649648 41.62752893 0 0 0 0 0 0 0 0 STD5.60
2026-04-23 23:49:21 18 19.40 0.090000 41.649648 41.62752893 0 0 0 0 0 0 0 0 STD5.60
2026-04-23 23:44:19 29 19.10 0.145000 41.649648 41.62752893 0 0 0 0 0 0 0 0 STD5.60
2026-04-23 23:39:17 18 16.00 0.090000 41.649648 41.62752893 0 0 0 0 0 0 0 0 STD5.60
2026-04-23 23:34:15 14 14.50 0.070000 41.649648 41.62752893 0 0 0 0 0 0 0 0 STD5.60
2026-04-23 23:29:12 18 17.30 0.090000 41.649648 41.62752893 0 0 0 0 0 0 0 0 STD5.60
2026-04-23 23:24:12 18 19.90 0.090000 41.649648 41.62752893 0 0 0 0 0 0 0 0 STD5.60
2026-04-23 23:19:09 21 19.50 0.105000 41.649648 41.62752893 0 0 0 0 0 0 0 0 STD5.60
2026-04-23 23:14:05 20 18.10 0.100000 41.649648 41.62752893 0 0 0 0 0 0 0 0 STD5.60
2026-04-23 23:09:03 18 18.00 0.090000 41.649648 41.62752893 0 0 0 0 0 0 0 0 STD5.60
2026-04-23 23:04:01 23 18.90 0.115000 41.649648 41.62752893 0 0 0 0 0 0 0 0 STD5.60
2026-04-23 22:58:59 21 17.60 0.105000 41.649648 41.62752893 0 0 0 0 0 0 0 0 STD5.60
2026-04-23 22:53:57 16 17.60 0.080000 41.649648 41.62752893 0 0 0 0 0 0 0 0 STD5.60
2026-04-23 22:48:55 21 19.00 0.105000 41.649648 41.62752893 0 0 0 0 0 0 0 0 STD5.60
2026-04-23 22:43:53 19 19.00 0.095000 41.649648 41.62752893 0 0 0 0 0 0 0 0 STD5.60
2026-04-23 22:38:51 20 18.40 0.100000 41.649648 41.62752893 0 0 0 0 0 0 0 0 STD5.60
2026-04-23 22:33:48 17 18.50 0.085000 41.649648 41.62752893 0 0 0 0 0 0 0 0 STD5.60
2026-04-23 22:28:46 13 17.90 0.065000 41.649648 41.62752893 0 0 0 0 0 0 0 0 STD5.60
2026-04-23 22:23:45 22 18.80 0.110000 41.649648 41.62752893 0 0 0 0 0 0 0 0 STD5.60
2026-04-23 22:18:42 26 20.30 0.130000 41.649648 41.62752893 0 0 0 0 0 0 0 0 STD5.60
2026-04-23 22:13:37 25 17.40 0.125000 41.649648 41.62752893 0 0 0 0 0 0 0 0 STD5.60
2026-04-23 22:08:35 13 15.10 0.065000 41.649648 41.62752893 0 0 0 0 0 0 0 0 STD5.60
2026-04-23 22:03:33 13 15.20 0.065000 41.649648 41.62752893 0 0 0 0 0 0 0 0 STD5.60
2026-04-23 21:58:30 17 18.00 0.085000 41.649648 41.62752893 0 0 0 0 0 0 0 0 STD5.60
2026-04-23 21:53:28 28 18.50 0.140000 41.649648 41.62752893 0 0 0 0 0 0 0 0 STD5.60
2026-04-23 21:48:26 19 16.60 0.095000 41.649648 41.62752893 0 0 0 0 0 0 0 0 STD5.60
2026-04-23 21:43:23 14 18.60 0.070000 41.649648 41.62752893 0 0 0 0 0 0 0 0 STD5.60
2026-04-23 21:38:21 18 18.00 0.090000 41.649648 41.62752893 0 0 0 0 0 0 0 0 STD5.60
2026-04-23 21:33:19 14 15.70 0.070000 41.649648 41.62752893 0 0 0 0 0 0 0 0 STD5.60
2026-04-23 21:28:17 11 15.70 0.055000 41.649648 41.62752893 0 0 0 0 0 0 0 0 STD5.60
2026-04-23 21:23:15 21 18.30 0.105000 41.649648 41.62752893 0 0 0 0 0 0 0 0 STD5.60
2026-04-23 21:18:13 20 21.10 0.100000 41.649648 41.62752893 0 0 0 0 0 0 0 0 STD5.60
2026-04-23 21:13:09 22 18.90 0.110000 41.649648 41.62752893 0 0 0 0 0 0 0 0 STD5.60
2026-04-23 21:08:07 10 16.80 0.050000 41.649648 41.62752893 0 0 0 0 0 0 0 0 STD5.60
2026-04-23 21:03:05 24 17.70 0.120000 41.649648 41.62752893 0 0 0 0 0 0 0 0 STD5.60
2026-04-23 20:58:03 23 20.50 0.115000 41.649648 41.62752893 0 0 0 0 0 0 0 0 STD5.60
2026-04-23 20:53:01 16 19.40 0.080000 41.649648 41.62752893 0 0 0 0 0 0 0 0 STD5.60
2026-04-23 20:47:58 12 16.60 0.060000 41.649648 41.62752893 0 0 0 0 0 0 0 0 STD5.60
2026-04-23 20:42:56 22 17.60 0.110000 41.649648 41.62752893 0 0 0 0 0 0 0 0 STD5.60
2026-04-23 20:37:54 20 18.60 0.100000 41.649648 41.62752893 0 0 0 0 0 0 0 0 STD5.60
2026-04-23 20:32:52 23 19.50 0.115000 41.649648 41.62752893 0 0 0 0 0 0 0 0 STD5.60
2026-04-23 20:27:50 20 18.80 0.100000 41.649648 41.62752893 0 0 0 0 0 0 0 0 STD5.60
2026-04-23 20:22:48 15 18.00 0.075000 41.649648 41.62752893 0 0 0 0 0 0 0 0 STD5.60
2026-04-23 20:17:45 27 18.20 0.135000 41.649648 41.62752893 0 0 0 0 0 0 0 0 STD5.60
2026-04-23 20:12:41 17 15.30 0.085000 41.649648 41.62752893 0 0 0 0 0 0 0 0 STD5.60
2026-04-23 20:07:39 10 14.60 0.050000 41.649648 41.62752893 0 0 0 0 0 0 0 0 STD5.60
2026-04-23 20:02:37 21 17.90 0.105000 41.649648 41.62752893 0 0 0 0 0 0 0 0 STD5.60
2026-04-23 19:57:35 19 18.30 0.095000 41.649648 41.62752893 0 0 0 0 0 0 0 0 STD5.60
2026-04-23 19:52:32 21 17.00 0.105000 41.649648 41.62752893 0 0 0 0 0 0 0 0 STD5.60
2026-04-23 19:47:30 18 16.60 0.090000 41.649648 41.62752893 0 0 0 0 0 0 0 0 STD5.60
2026-04-23 19:42:28 12 16.90 0.060000 41.649648 41.62752893 0 0 0 0 0 0 0 0 STD5.60
2026-04-23 19:37:26 18 17.70 0.090000 41.649648 41.62752893 0 0 0 0 0 0 0 0 STD5.60
2026-04-23 19:32:24 22 19.10 0.110000 41.649648 41.62752893 0 0 0 0 0 0 0 0 STD5.60
2026-04-23 19:27:22 18 18.90 0.090000 41.649648 41.62752893 0 0 0 0 0 0 0 0 STD5.60
2026-04-23 19:22:20 25 18.00 0.125000 41.649648 41.62752893 0 0 0 0 0 0 0 0 STD5.60
2026-04-23 19:17:18 19 18.00 0.095000 41.649648 41.62752893 0 0 0 0 0 0 0 0 STD5.60
2026-04-23 19:12:14 21 17.70 0.105000 41.649648 41.62752893 0 0 0 0 0 0 0 0 STD5.60
2026-04-23 19:07:13 14 17.50 0.070000 41.649648 41.62752893 0 0 0 0 0 0 0 0 STD5.60
2026-04-23 19:02:10 18 17.40 0.090000 41.649648 41.62752893 0 0 0 0 0 0 0 0 STD5.60
2026-04-23 18:57:08 19 17.70 0.095000 41.649648 41.62752893 0 0 0 0 0 0 0 0 STD5.60
2026-04-23 18:52:06 15 17.30 0.075000 41.649648 41.62752893 0 0 0 0 0 0 0 0 STD5.60
2026-04-23 18:47:04 17 18.40 0.085000 41.649648 41.62752893 0 0 0 0 0 0 0 0 STD5.60
2026-04-23 18:42:02 23 21.70 0.115000 41.649648 41.62752893 0 0 0 0 0 0 0 0 STD5.60
2026-04-23 18:37:00 18 20.80 0.090000 41.649648 41.62752893 0 0 0 0 0 0 0 0 STD5.60
2026-04-23 18:31:58 21 17.60 0.105000 41.649648 41.62752893 0 0 0 0 0 0 0 0 STD5.60
2026-04-23 18:26:56 17 17.20 0.085000 41.649648 41.62752893 0 0 0 0 0 0 0 0 STD5.60
2026-04-23 18:21:54 12 18.90 0.060000 41.649648 41.62752893 0 0 0 0 0 0 0 0 STD5.60
2026-04-23 18:16:51 22 18.00 0.110000 41.649648 41.62752893 0 0 0 0 0 0 0 0 STD5.60
2026-04-23 18:11:47 13 14.80 0.065000 41.649648 41.62752893 0 0 0 0 0 0 0 0 STD5.60
2026-04-23 18:06:44 15 15.00 0.075000 41.649648 41.62752893 0 0 0 0 0 0 0 0 STD5.60
2026-04-23 18:01:42 13 18.50 0.065000 41.649648 41.62752893 0 0 0 0 0 0 0 0 STD5.60
2026-04-23 17:56:40 15 19.50 0.075000 41.649648 41.62752893 0 0 0 0 0 0 0 0 STD5.60
2026-04-23 17:51:38 21 18.00 0.105000 41.649648 41.62752893 0 0 0 0 0 0 0 0 STD5.60
2026-04-23 17:46:36 13 16.80 0.065000 41.649648 41.62752893 0 0 0 0 0 0 0 0 STD5.60
2026-04-23 17:41:34 19 15.90 0.095000 41.649648 41.62752893 0 0 0 0 0 0 0 0 STD5.60
2026-04-23 17:36:32 21 17.10 0.105000 41.649648 41.62752893 0 0 0 0 0 0 0 0 STD5.60
2026-04-23 17:31:31 16 18.70 0.080000 41.649648 41.62752893 0 0 0 0 0 0 0 0 STD5.60
2026-04-23 17:26:27 16 19.70 0.080000 41.649648 41.62752893 0 0 0 0 0 0 0 0 STD5.60
2026-04-23 17:21:25 25 20.20 0.125000 41.649648 41.62752893 0 0 0 0 0 0 0 0 STD5.60
2026-04-23 17:16:23 28 18.60 0.140000 41.649648 41.62752893 0 0 0 0 0 0 0 0 STD5.60
2026-04-23 17:11:19 23 16.30 0.115000 41.649648 41.62752893 0 0 0 0 0 0 0 0 STD5.60
2026-04-23 17:06:17 19 18.50 0.095000 41.649648 41.62752893 0 0 0 0 0 0 0 0 STD5.60
2026-04-23 17:01:15 18 18.30 0.090000 41.649648 41.62752893 0 0 0 0 0 0 0 0 STD5.60
2026-04-23 16:56:13 24 16.40 0.120000 41.649648 41.62752893 0 0 0 0 0 0 0 0 STD5.60
2026-04-23 16:51:11 23 18.10 0.115000 41.649648 41.62752893 0 0 0 0 0 0 0 0 STD5.60
2026-04-23 16:46:08 22 16.70 0.110000 41.649648 41.62752893 0 0 0 0 0 0 0 0 STD5.60
2026-04-23 16:41:06 13 15.20 0.065000 41.649648 41.62752893 0 0 0 0 0 0 0 0 STD5.60
2026-04-23 16:36:04 10 15.80 0.050000 41.649648 41.62752893 0 0 0 0 0 0 0 0 STD5.60
2026-04-23 16:31:05 16 15.80 0.080000 41.649648 41.62752893 0 0 0 0 0 0 0 0 STD5.60
2026-04-23 16:26:00 15 15.90 0.075000 41.649648 41.62752893 0 0 0 0 0 0 0 0 STD5.60
2026-04-23 16:20:58 14 16.50 0.070000 41.649648 41.62752893 0 0 0 0 0 0 0 0 STD5.60
2026-04-23 16:15:55 12 18.50 0.060000 41.649648 41.62752893 0 0 0 0 0 0 0 0 STD5.60
2026-04-23 16:10:51 19 19.60 0.095000 41.649648 41.62752893 0 0 0 0 0 0 0 0 STD5.60
2026-04-23 16:05:49 23 20.50 0.115000 41.649648 41.62752893 0 0 0 0 0 0 0 0 STD5.60
2026-04-23 16:00:47 22 20.40 0.110000 41.649648 41.62752893 0 0 0 0 0 0 0 0 STD5.60
2026-04-23 15:55:45 19 18.10 0.095000 41.649648 41.62752893 0 0 0 0 0 0 0 0 STD5.60
2026-04-23 15:50:43 21 17.80 0.105000 41.649648 41.62752893 0 0 0 0 0 0 0 0 STD5.60
2026-04-23 15:45:41 15 20.00 0.075000 41.649648 41.62752893 0 0 0 0 0 0 0 0 STD5.60
2026-04-23 15:40:39 19 19.60 0.095000 41.649648 41.62752893 0 0 0 0 0 0 0 0 STD5.60
2026-04-23 15:35:37 18 17.70 0.090000 41.649648 41.62752893 0 0 0 0 0 0 0 0 STD5.60
2026-04-23 15:30:35 20 19.30 0.100000 41.649648 41.62752893 0 0 0 0 0 0 0 0 STD5.60
2026-04-23 15:25:33 22 19.50 0.110000 41.649648 41.62752893 0 0 0 0 0 0 0 0 STD5.60
2026-04-23 15:20:31 19 17.50 0.095000 41.649648 41.62752893 0 0 0 0 0 0 0 0 STD5.60
2026-04-23 15:15:29 16 16.60 0.080000 41.649648 41.62752893 0 0 0 0 0 0 0 0 STD5.60
2026-04-23 15:10:25 20 17.00 0.100000 41.649648 41.62752893 0 0 0 0 0 0 0 0 STD5.60
2026-04-23 15:05:23 20 16.40 0.100000 41.649648 41.62752893 0 0 0 0 0 0 0 0 STD5.60
2026-04-23 15:00:25 19 16.80 0.095000 41.649648 41.62752893 0 0 0 0 0 0 0 0 STD5.60
2026-04-23 14:55:19 18 17.70 0.090000 41.649648 41.62752893 0 0 0 0 0 0 0 0 STD5.60
2026-04-23 14:50:16 23 17.90 0.115000 41.649648 41.62752893 0 0 0 0 0 0 0 0 STD5.60
2026-04-23 14:45:15 17 17.60 0.085000 41.649648 41.62752893 0 0 0 0 0 0 0 0 STD5.60
2026-04-23 14:40:14 21 18.00 0.105000 41.649648 41.62752893 0 0 0 0 0 0 0 0 STD5.60
2026-04-23 14:35:12 21 18.30 0.105000 41.649648 41.62752893 0 0 0 0 0 0 0 0 STD5.60
2026-04-23 14:30:08 15 17.30 0.075000 41.649648 41.62752893 0 0 0 0 0 0 0 0 STD5.60
2026-04-23 14:25:06 20 17.10 0.100000 41.649648 41.62752893 0 0 0 0 0 0 0 0 STD5.60
2026-04-23 14:20:04 12 18.00 0.060000 41.649648 41.62752893 0 0 0 0 0 0 0 0 STD5.60
2026-04-23 14:09:57 23 20.80 0.115000 41.649648 41.62752893 0 0 0 0 0 0 0 0 STD5.60
2026-04-23 14:04:55 18 18.20 0.090000 41.649648 41.62752893 0 0 0 0 0 0 0 0 STD5.60
2026-04-23 13:59:53 19 18.10 0.095000 41.649648 41.62752893 0 0 0 0 0 0 0 0 STD5.60
2026-04-23 13:54:51 20 18.90 0.100000 41.649648 41.62752893 0 0 0 0 0 0 0 0 STD5.60
2026-04-23 13:49:49 22 19.60 0.110000 41.649648 41.62752893 0 0 0 0 0 0 0 0 STD5.60
2026-04-23 13:44:47 19 18.20 0.095000 41.649648 41.62752893 0 0 0 0 0 0 0 0 STD5.60
2026-04-23 13:39:45 12 16.80 0.060000 41.649648 41.62752893 0 0 0 0 0 0 0 0 STD5.60
Geiger Counter World Map       A real time radiation map.     Copyright 2015 All rights reserved.